GW0525 Weather Reports


Display with metric or nautical units.
time (UTC)temp
F
wind
direction
speed
MPH
gust
MPH
rain 1hr
in
rain 24hr
in
rain mn
in
humidity
%
barometer
mb
20260905050108 74 63 2.0 7.0 0.00 0.00 0.00 59 1008.8
20260905044608 75 82 5.0 9.0 0.00 0.00 0.00 60 1008.6
20260905043105 74 74 5.0 9.0 0.00 0.00 0.00 61 1008.7
20260905041607 73 34 5.0 10.0 0.00 0.00 0.00 63 1008.8
20260905040106 74 55 6.0 12.0 0.00 0.00 0.00 60 1008.7
20260905034613 77 52 7.0 13.0 0.00 0.00 0.00 56 1008.7
20260905033120 79 57 10.0 15.0 0.00 0.00 0.00 54 1008.6
20260905031621 79 80 10.0 15.0 0.00 0.00 0.00 52 1008.6
20260905030110 79 83 9.0 15.0 0.00 0.00 0.00 51 1008.6
20260905024611 80 76 10.0 16.0 0.00 0.00 0.00 48 1008.6
20260905023137 80 74 11.0 17.0 0.00 0.00 0.00 46 1008.5
20260905021608 79 54 12.0 16.0 0.00 0.00 0.00 44 1008.4
20260905020106 80 46 12.0 14.0 0.00 0.00 0.00 42 1008.3
20260905014616 82 40 12.0 13.0 0.00 0.00 0.00 40 1008.1
20260905013106 85 51 11.0 16.0 0.00 0.00 0.00 37 1008.1
20260905011607 86 42 9.0 17.0 0.00 0.00 0.00 35 1008.1
20260905010107 87 46 7.0 12.0 0.00 0.00 0.00 35 1008.0
20260905004606 88 64 6.0 12.0 0.00 0.00 0.00 33 1008.1
20260905003106 89 80 8.0 14.0 0.00 0.00 0.00 32 1007.8
20260905001610 91 58 13.0 19.0 0.00 0.00 0.00 31 1007.9
20260905000121 91 98 11.0 16.0 0.00 0.00 0.00 30 1007.9
20260904234606 92 89 12.0 16.0 0.00 0.00 0.00 30 1007.9
20260904233107 92 111 11.0 14.0 0.00 0.00 0.00 29 1007.9
20260904231606 92 70 7.0 17.0 0.00 0.00 0.00 29 1007.9
20260904230105 93 126 11.0 15.0 0.00 0.00 0.00 28 1008.0
20260904224607 93 146 4.0 16.0 0.00 0.00 0.00 28 1008.0
20260904223108 93 146 10.0 16.0 0.00 0.00 0.00 27 1007.9
20260904221607 93 173 13.0 19.0 0.00 0.00 0.00 27 1008.1
20260904220120 92 144 13.0 17.0 0.00 0.00 0.00 28 1008.2
20260904214607 93 196 14.0 20.0 0.00 0.00 0.00 28 1008.2
20260904213108 92 167 12.0 20.0 0.00 0.00 0.00 29 1008.3
20260904211609 92 183 14.0 24.0 0.00 0.00 0.00 29 1008.3
20260904210119 91 175 13.0 28.0 0.00 0.00 0.00 30 1008.6
20260904204604 92 170 14.0 28.0 0.00 0.00 0.00 28 1008.6
20260904203111 91 167 21.0 30.0 0.00 0.00 0.00 28 1008.5
20260904201604 90 147 18.0 32.0 0.00 0.00 0.00 33 1008.6
20260904200107 89 134 18.0 32.0 0.00 0.00 0.00 35 1008.6
20260904194612 89 159 21.0 27.0 0.00 0.00 0.00 37 1008.7
20260904193117 88 173 19.0 29.0 0.00 0.00 0.00 36 1008.7
20260904191606 86 218 17.0 29.0 0.00 0.00 0.00 39 1008.8
20260904190106 85 170 23.0 34.0 0.00 0.00 0.00 41 1009.0
20260904184621 84 146 20.0 29.0 0.00 0.00 0.00 45 1009.3
20260904183106 84 167 23.0 32.0 0.00 0.00 0.00 44 1009.5
20260904181612 82 145 21.0 31.0 0.00 0.00 0.00 47 1009.7
20260904180119 82 162 22.0 32.0 0.00 0.00 0.00 48 1009.9
20260904174620 81 136 22.0 33.0 0.00 0.00 0.00 48 1010.0
20260904173112 80 149 24.0 37.0 0.00 0.00 0.00 48 1010.1
20260904171607 80 148 23.0 33.0 0.00 0.00 0.00 48 1010.1
20260904170105 80 143 22.0 32.0 0.00 0.00 0.00 49 1010.4
20260904164605 78 147 23.0 35.0 0.00 0.00 0.00 52 1010.5
20260904163110 76 142 24.0 33.0 0.00 0.00 0.00 59 1010.6
20260904161606 75 140 22.0 30.0 0.00 0.00 0.00 63 1010.7
20260904160107 74 132 22.0 32.0 0.00 0.00 0.00 65 1010.9
20260904154606 73 146 20.0 31.0 0.00 0.00 0.00 68 1010.9
20260904153127 72 137 20.0 30.0 0.00 0.00 0.00 69 1011.0
20260904151605 71 170 19.0 27.0 0.00 0.00 0.00 73 1011.2
20260904150103 70 130 19.0 26.0 0.00 0.00 0.00 75 1011.1
20260904144608 68 125 15.0 23.0 0.00 0.00 0.00 77 1011.3
20260904143109 65 113 15.0 19.0 0.00 0.00 0.00 83 1011.3
20260904141607 64 120 15.0 18.0 0.00 0.00 0.00 84 1011.2
20260904140107 62 131 14.0 19.0 0.00 0.00 0.00 86 1011.2
20260904134610 61 121 13.0 19.0 0.00 0.00 0.00 88 1011.2
20260904133114 60 113 14.0 18.0 0.00 0.00 0.00 90 1011.2
20260904131618 58 126 11.0 15.0 0.00 0.00 0.00 91 1011.3
20260904130107 57 126 11.0 16.0 0.00 0.00 0.00 91 1011.3
20260904124612 57 130 10.0 13.0 0.00 0.00 0.00 92 1011.0
20260904123117 56 142 7.0 12.0 0.00 0.00 0.00 90 1011.1
20260904121606 57 138 9.0 12.0 0.00 0.00 0.00 90 1011.1
20260904120110 56 134 8.0 11.0 0.00 0.00 0.00 90 1011.0
20260904114608 56 123 9.0 11.0 0.00 0.00 0.00 88 1011.2
20260904113107 57 128 9.0 11.0 0.00 0.00 0.00 88 1011.1
20260904111620 56 127 8.0 9.0 0.00 0.00 0.00 89 1011.2
20260904110110 57 125 7.0 9.0 0.00 0.00 0.00 89 1011.3
20260904104605 56 98 5.0 7.0 0.00 0.00 0.00 90 1011.1
20260904103105 56 78 3.0 5.0 0.00 0.00 0.00 88 1011.5
20260904101618 57 77 3.0 4.0 0.00 0.00 0.00 86 1011.5
20260904100104 58 107 3.0 6.0 0.00 0.00 0.00 85 1011.7
20260904094607 57 119 4.0 7.0 0.00 0.00 0.00 85 1011.7
20260904093118 58 96 4.0 6.0 0.00 0.00 0.00 84 1011.5
20260904091605 59 75 1.0 3.0 0.00 0.00 0.00 82 1011.4
20260904090109 60 89 1.0 3.0 0.00 0.00 0.00 80 1011.4
20260904084603 61 94 2.0 3.0 0.00 0.00 0.00 78 1011.4
20260904083110 61 0 0.0 2.0 0.00 0.00 0.00 77 1011.5
20260904081607 61 125 0.0 1.0 0.00 0.00 0.00 77 1011.6
20260904080107 61 0 0.0 1.0 0.00 0.00 0.00 73 1011.5
20260904074607 62 45 2.0 4.0 0.00 0.00 0.00 67 1011.7
20260904073105 63 41 0.0 1.0 0.00 0.00 0.00 60 1011.7
20260904071605 64 0 2.0 3.0 0.00 0.00 0.00 56 1011.7
20260904070107 63 117 0.0 1.0 0.00 0.00 0.00 53 1011.7
20260904064602 63 0 0.0 0.0 0.00 0.00 0.00 50 1011.7
20260904063105 63 0 0.0 1.0 0.00 0.00 0.00 50 1011.6
20260904061607 64 0 0.0 3.0 0.00 0.00 0.00 45 1011.5
20260904060108 63 98 2.0 3.0 0.00 0.00 0.00 46 1011.5
20260904054604 63 0 0.0 2.0 0.00 0.00 0.00 47 1011.5
20260904053128 65 101 5.0 7.0 0.00 0.00 0.00 44 1011.4
20260904051607 64 0 0.0 4.0 0.00 0.00 0.00 46 1011.4